[TLELIST] Archives

 

[list_settings.list_name] Current TLEs

May 31st 2015 PST

HST 1 20580U 90037B 15150.77030465 .00001425 00000-0 80342-4 0 9991 2 20580 028.4702 268.9794 0003184 054.1105 072.7688 15.07418416177186 ISS (ZARYA) 1 25544U 98067A 15151.19657124 .00004398 00000-0 70803-4 0 9994 2 25544 051.6444 168.8667 0004039 005.0714 114.6844 15.55239411945395 CXO 1 25867U 99040B 15151.98586553 -.00000007 00000-0 00000+0 0 9999 2 25867 076.8973 308.0345 7582860 269.0424 359.9791 00.37799827 13229 ____________________________________________________________________ These 2-Line ...Continue Reading

[list_settings.list_name] Current TLEs

May 30th 2015 PST

HST 1 20580U 90037B 15149.57222572 .00001461 00000-0 82679-4 0 9994 2 20580 028.4702 276.8790 0003148 042.0491 050.3513 15.07415687176998 ISS (ZARYA) 1 25544U 98067A 15150.10379175 .00005040 00000-0 80129-4 0 9998 2 25544 051.6437 174.3207 0004016 002.2132 115.1899 15.55231005945226 CXO 1 25867U 99040B 15151.98586553 -.00000007 00000-0 00000+0 0 9999 2 25867 076.8973 308.0345 7582860 269.0424 359.9791 00.37799827 13229 ____________________________________________________________________ These 2-Line ...Continue Reading

[list_settings.list_name] Current TLEs

May 29th 2015 PST

HST 1 20580U 90037B 15147.79498103 .00001441 00000-0 81384-4 0 9991 2 20580 028.4705 288.5976 0003100 023.6736 125.0917 15.07410988176731 ISS (ZARYA) 1 25544U 98067A 15149.13742819 .00005213 00000-0 82653-4 0 9994 2 25544 051.6443 179.1459 0003989 357.2629 106.0652 15.55221195945075 CXO 1 25867U 99040B 15149.34072342 -.00000103 00000-0 00000+0 0 9999 2 25867 076.9025 308.1225 7586252 269.0683 359.9749 00.37801175 13214 ____________________________________________________________________ These 2-Line ...Continue Reading

[list_settings.list_name] Current TLEs

May 28th 2015 PST

HST 1 20580U 90037B 15147.79498103 .00001441 00000-0 81384-4 0 9991 2 20580 028.4705 288.5976 0003100 023.6736 125.0917 15.07410988176731 ISS (ZARYA) 1 25544U 98067A 15148.10234883 .00005183 00000-0 82257-4 0 9993 2 25544 051.6446 184.3139 0003914 352.9763 071.3293 15.55209110944910 CXO 1 25867U 99040B 15149.34072342 -.00000103 00000-0 00000+0 0 9999 2 25867 076.9025 308.1225 7586252 269.0683 359.9749 00.37801175 13214 ____________________________________________________________________ These 2-Line ...Continue Reading

[list_settings.list_name] Current TLEs

May 27th 2015 PST

HST 1 20580U 90037B 15146.66137009 .00001329 00000-0 74173-4 0 9994 2 20580 028.4706 296.0721 0003014 011.3786 093.4772 15.07407314176553 ISS (ZARYA) 1 25544U 98067A 15147.14557390 .00005659 00000-0 89194-4 0 9992 2 25544 051.6439 189.0910 0003955 350.1948 113.8327 15.55199900944769 CXO 1 25867U 99040B 15149.34072342 -.00000103 00000-0 00000+0 0 9999 2 25867 076.9025 308.1225 7586252 269.0683 359.9749 00.37801175 13214 ____________________________________________________________________ These 2-Line ...Continue Reading

[list_settings.list_name] Current TLEs

May 26th 2015 PST

HST 1 20580U 90037B 15145.52814133 .00001533 00000-0 87323-4 0 9996 2 20580 028.4706 303.5440 0002926 358.9794 064.0564 15.07404783176386 ISS (ZARYA) 1 25544U 98067A 15146.17211566 .00006342 00000-0 99125-4 0 9991 2 25544 051.6441 193.9522 0003994 346.2996 064.0211 15.55191002944615 CXO 1 25867U 99040B 15146.69621222 -.00000164 00000-0 00000+0 0 9998 2 25867 076.9057 308.2208 7588127 269.1006 000.0249 00.37798734 13208 ____________________________________________________________________ These 2-Line ...Continue Reading

[list_settings.list_name] Current TLEs

May 25th 2015 PST

HST 1 20580U 90037B 15143.88850284 .00001610 00000-0 92314-4 0 9992 2 20580 028.4710 314.3549 0002834 341.6417 166.0448 15.07401031176141 ISS (ZARYA) 1 25544U 98067A 15145.08797538 .00007634 00000-0 11790-3 0 9994 2 25544 051.6437 199.3648 0003748 339.6942 116.8801 15.55180988944446 CXO 1 25867U 99040B 15146.69621222 -.00000164 00000-0 00000+0 0 9998 2 25867 076.9057 308.2208 7588127 269.1006 000.0249 00.37798734 13208 ____________________________________________________________________ These 2-Line ...Continue Reading

[list_settings.list_name] Current TLEs

May 24th 2015 PST

HST 1 20580U 90037B 15143.88850284 .00001610 00000-0 92314-4 0 9992 2 20580 028.4710 314.3549 0002834 341.6417 166.0448 15.07401031176141 ISS (ZARYA) 1 25544U 98067A 15144.50562038 .00008827 00000-0 13523-3 0 9996 2 25544 051.6437 202.2721 0003617 339.6827 094.3453 15.55175832944354 CXO 1 25867U 99040B 15144.05219101 -.00000169 00000-0 00000+0 0 9990 2 25867 076.9096 308.3099 7588795 269.1517 000.0894 00.37794444 13196 ____________________________________________________________________ These 2-Line ...Continue Reading

[list_settings.list_name] Current TLEs

May 23rd 2015 PST

HST 1 20580U 90037B 15142.82578186 .00001933 00000-0 11318-3 0 9995 2 20580 028.4711 321.3633 0002877 331.4443 157.8259 15.07398033175983 ISS (ZARYA) 1 25544U 98067A 15143.22496735 .00013201 00000-0 19866-3 0 9992 2 25544 051.6443 208.6657 0004203 339.9360 119.5156 15.55168677944153 CXO 1 25867U 99040B 15144.05219101 -.00000169 00000-0 00000+0 0 9990 2 25867 076.9096 308.3099 7588795 269.1517 000.0894 00.37794444 13196 ____________________________________________________________________ These 2-Line ...Continue Reading

[list_settings.list_name] Current TLEs

May 22nd 2015 PST

HST 1 20580U 90037B 15141.76170574 .00002299 00000-0 13674-3 0 9999 2 20580 028.4709 328.3793 0002760 319.8912 143.6089 15.07394297175810 ISS (ZARYA) 1 25544U 98067A 15142.25059100 .00015072 00000-0 22591-3 0 9992 2 25544 051.6450 213.5319 0003999 331.7191 069.0369 15.55150380944005 CXO 1 25867U 99040B 15144.05219101 -.00000169 00000-0 00000+0 0 9990 2 25867 076.9096 308.3099 7588795 269.1517 000.0894 00.37794444 13196 ____________________________________________________________________ These 2-Line ...Continue Reading
  • This mailing list is a public mailing list - anyone may join or leave, at any time.
  • This mailing list is announce-only.

International Space Station (ISS) / Hubble Space Telescope (HST) / Chandra X-Ray Observatory Orbital Data via EMAIL

Privacy Policy:

Private list